AI4ZL Weather Reports


time (UTC)temp
F
wind
direction
speed
knots
gust
knots
rain 1hr
in
rain 24hr
in
rain mn
in
humidity
%
barometer
mb
20260902230248 95 9 0.0 0.9 0.00 0.00 0.00 60 1016.8
20260902225241 95 51 0.9 1.7 0.00 0.00 0.00 59 1016.8
20260902224235 96 52 0.9 1.7 0.00 0.00 0.00 58 1016.8
20260902223245 97 146 0.9 1.7 0.00 0.00 0.00 55 1016.8
20260902222241 97 232 0.0 0.9 0.00 0.00 0.00 55 1016.8
20260902221310 98 309 0.0 0.9 0.00 0.00 0.00 53 1016.8
20260902220241 97 354 0.0 0.9 0.00 0.00 0.00 55 1016.9
20260902215234 98 45 0.9 1.7 0.00 0.00 0.00 53 1017.0
20260902214248 98 288 0.0 0.9 0.00 0.00 0.00 53 1017.0
20260902213237 96 254 0.0 2.6 0.00 0.00 0.00 56 1017.1
20260902212244 99 192 0.9 1.7 0.00 0.00 0.00 50 1017.2
20260902211236 99 209 0.9 2.6 0.00 0.00 0.00 51 1017.1
20260902210245 99 240 0.9 1.7 0.00 0.00 0.00 51 1017.1
20260902205253 97 197 1.7 2.6 0.00 0.00 0.00 54 1017.3
20260902204253 97 184 0.9 1.7 0.00 0.00 0.00 54 1017.5
20260902203233 97 243 0.9 1.7 0.00 0.00 0.00 56 1017.5
20260902202244 96 243 0.9 2.6 0.00 0.00 0.00 56 1017.5
20260902201234 97 194 0.9 1.7 0.00 0.00 0.00 55 1017.7
20260902200245 96 256 0.9 1.7 0.00 0.00 0.00 54 1018.0
20260902195231 95 210 0.9 3.5 0.00 0.00 0.00 57 1018.0
20260902194242 96 224 1.7 2.6 0.00 0.00 0.00 56 1018.3
20260902193233 97 210 1.7 2.6 0.00 0.00 0.00 51 1018.4
20260902192246 98 199 1.7 5.2 0.00 0.00 0.00 51 1018.4
20260902191242 97 273 1.7 2.6 0.00 0.00 0.00 52 1018.5
20260902190239 97 284 1.7 3.5 0.00 0.00 0.00 51 1018.6
20260902185235 97 246 1.7 6.1 0.00 0.00 0.00 52 1018.6
20260902184231 96 246 1.7 2.6 0.00 0.00 0.00 54 1018.9
20260902183247 97 246 1.7 5.2 0.00 0.00 0.00 52 1018.8
20260902182243 96 220 0.9 3.5 0.00 0.00 0.00 56 1018.7
20260902181239 96 258 1.7 3.5 0.00 0.00 0.00 56 1018.8
20260902180234 95 221 1.7 2.6 0.00 0.00 0.00 58 1018.9
20260902175249 96 148 1.7 2.6 0.00 0.00 0.00 55 1019.1
20260902174245 96 206 1.7 5.2 0.00 0.00 0.00 56 1019.1
20260902173238 97 190 1.7 3.5 0.00 0.00 0.00 56 1019.3
20260902172233 96 170 1.7 3.5 0.00 0.00 0.00 57 1019.3
20260902171248 96 223 2.6 5.2 0.00 0.00 0.00 56 1019.4
20260902170243 95 256 1.7 3.5 0.00 0.00 0.00 57 1019.6
20260902165239 96 260 2.6 6.1 0.00 0.00 0.00 57 1019.8
20260902164235 95 265 2.6 5.2 0.00 0.00 0.00 59 1019.8
20260902163244 95 255 2.6 6.1 0.00 0.00 0.00 58 1019.9
20260902162258 95 202 1.7 3.5 0.00 0.00 0.00 61 1019.9
20260902161234 94 231 1.7 3.5 0.00 0.00 0.00 61 1019.9
20260902160249 94 257 0.9 3.5 0.00 0.00 0.00 63 1020.0
20260902155242 93 187 0.9 2.6 0.00 0.00 0.00 64 1020.1
20260902154237 93 202 0.9 2.6 0.00 0.00 0.00 64 1020.2
20260902153231 92 236 0.9 2.6 0.00 0.00 0.00 65 1020.0
20260902152308 92 276 1.7 5.2 0.00 0.00 0.00 64 1020.1
20260902151239 91 269 0.9 1.7 0.00 0.00 0.00 66 1020.2
20260902150231 91 179 0.9 2.6 0.00 0.00 0.00 68 1020.3
20260902145241 90 269 1.7 5.2 0.00 0.00 0.00 68 1020.1
20260902144233 89 213 1.7 2.6 0.00 0.00 0.00 70 1020.0
20260902143244 88 232 1.7 3.5 0.00 0.00 0.00 71 1020.1
20260902142238 88 206 0.9 2.6 0.00 0.00 0.00 72 1020.0
20260902141250 87 202 1.7 2.6 0.00 0.00 0.00 73 1020.1
20260902140242 86 221 0.9 1.7 0.00 0.00 0.00 74 1020.1
20260902135253 86 232 0.9 2.6 0.00 0.00 0.00 76 1020.2
20260902134245 85 197 0.9 2.6 0.00 0.00 0.00 76 1020.3
20260902133239 84 227 0.9 1.7 0.00 0.00 0.00 79 1020.3
20260902132235 83 249 0.9 1.7 0.00 0.00 0.00 80 1020.1
20260902131230 82 201 0.9 1.7 0.00 0.00 0.00 82 1019.9
20260902130245 80 257 0.9 1.7 0.00 0.00 0.00 87 1019.9
20260902125238 77 320 0.0 0.9 0.00 0.00 0.00 96 1019.8
20260902124231 75 0.0 0.0 0.00 0.00 0.00 99 1019.8
20260902123307 74 0.0 0.0 0.00 0.00 0.00 99 1019.8
20260902122258 74 0.0 0.0 0.00 0.00 0.00 99 1019.7
20260902121232 73 0.0 0.0 0.00 0.00 0.00 99 1019.5
20260902120246 73 0.0 0.0 0.00 0.00 0.00 99 1019.4
20260902115239 73 0.0 0.0 0.00 0.00 0.00 99 1019.2
20260902114233 73 0.0 0.0 0.00 0.00 0.00 99 1019.2
20260902113247 73 0.0 0.0 0.00 0.00 0.00 98 1019.2
20260902112242 73 0.0 0.0 0.00 0.00 0.00 98 1019.0
20260902111254 73 0.0 0.0 0.00 0.00 0.00 97 1019.1
20260902110247 74 0.0 0.0 0.00 0.00 0.00 97 1018.9
20260902105301 74 0.0 0.0 0.00 0.00 0.00 97 1018.9
20260902104235 73 0.0 0.0 0.00 0.00 0.00 98 1018.7
20260902103248 73 0.0 0.0 0.00 0.00 0.00 98 1018.6
20260902102240 73 0.0 0.0 0.00 0.00 0.00 98 1018.6
20260902101231 73 0.0 0.0 0.00 0.00 0.00 99 1018.6
20260902100246 73 0.0 0.0 0.00 0.00 0.00 99 1018.6
20260902095237 73 0.0 0.0 0.00 0.00 0.00 99 1018.4
20260902094232 73 0.0 0.0 0.00 0.00 0.00 99 1018.6
20260902093245 73 0.0 0.0 0.00 0.00 0.00 99 1018.5
20260902092237 73 0.0 0.0 0.00 0.00 0.00 99 1018.5
20260902091249 73 0.0 0.0 0.00 0.00 0.00 99 1018.4
20260902090301 73 0.0 0.0 0.00 0.00 0.00 99 1018.4
20260902085232 73 0.0 0.0 0.00 0.00 0.00 99 1018.5
20260902084304 73 0.0 0.0 0.00 0.00 0.00 99 1018.4
20260902083238 73 0.0 0.0 0.00 0.00 0.00 99 1018.5
20260902082230 73 0.0 0.0 0.00 0.00 0.00 99 1018.3
20260902081244 73 0.0 0.0 0.00 0.00 0.00 99 1018.3
20260902080236 74 0.0 0.0 0.00 0.00 0.00 99 1018.4
20260902075250 74 0.0 0.0 0.00 0.00 0.00 99 1018.4
20260902074242 74 0.0 0.0 0.00 0.00 0.00 99 1018.3
20260902073233 74 0.0 0.0 0.00 0.00 0.00 98 1018.5
20260902072310 74 0.0 0.0 0.00 0.00 0.00 98 1018.5
20260902071241 74 0.0 0.0 0.00 0.00 0.00 98 1018.5
20260902070235 75 315 0.0 0.9 0.00 0.00 0.00 98 1018.5
20260902065310 75 0.0 0.0 0.00 0.00 0.00 98 1018.3
20260902064240 75 0.0 0.0 0.00 0.00 0.00 98 1018.4
20260902063253 75 0.0 0.0 0.00 0.00 0.00 99 1018.4
20260902062247 75 0.0 0.0 0.00 0.00 0.00 99 1018.4
20260902061240 74 316 0.0 0.9 0.00 0.00 0.00 99 1018.4
20260902060233 74 0.0 0.0 0.00 0.00 0.00 98 1018.4
20260902055243 75 0.0 0.0 0.00 0.00 0.00 98 1018.4
20260902054234 75 0.0 0.0 0.00 0.00 0.00 98 1018.3
20260902053246 75 0.0 0.0 0.00 0.00 0.00 98 1018.4
20260902052239 75 0.0 0.0 0.00 0.00 0.00 98 1018.4
20260902051250 75 0.0 0.0 0.00 0.00 0.00 97 1018.3
20260902050254 75 0.0 0.0 0.00 0.00 0.00 97 1018.3
20260902045233 76 0.0 0.0 0.00 0.00 0.00 96 1018.2
20260902044245 76 0.0 0.0 0.00 0.00 0.00 96 1018.3
20260902043239 76 0.0 0.0 0.00 0.00 0.00 95 1018.1
20260902042251 77 0.0 0.0 0.00 0.00 0.00 95 1018.1
20260902041243 78 0.0 0.0 0.00 0.00 0.00 94 1018.2
20260902040236 78 0.0 0.0 0.00 0.00 0.00 93 1018.2
20260902035250 78 0.0 0.0 0.00 0.00 0.00 93 1018.0
20260902034243 78 0.0 0.0 0.00 0.00 0.00 93 1018.1
20260902033257 79 0.0 0.0 0.00 0.00 0.00 92 1018.1
20260902032231 79 0.0 0.0 0.00 0.00 0.00 92 1018.2
20260902031301 79 0.0 0.0 0.00 0.00 0.00 91 1018.4
20260902030235 80 0.0 0.0 0.00 0.00 0.00 91 1018.4
20260902025250 80 0.0 0.0 0.00 0.00 0.00 91 1018.5
20260902024241 80 0.0 0.0 0.00 0.00 0.00 91 1018.4
20260902023236 80 0.0 0.0 0.00 0.00 0.00 92 1018.4
20260902022246 79 0.0 0.0 0.00 0.00 0.00 93 1018.3
20260902021257 79 0.0 0.0 0.00 0.00 0.00 94 1018.3
20260902020249 79 0.0 0.0 0.00 0.00 0.00 94 1018.1
20260902015305 79 0.0 0.0 0.00 0.00 0.00 94 1018.1
20260902014234 80 0.0 0.0 0.00 0.00 0.00 93 1018.0
20260902013247 80 0.0 0.0 0.00 0.00 0.00 93 1018.0
20260902012239 81 0.0 0.0 0.00 0.00 0.00 92 1017.9
20260902011232 81 0.0 0.0 0.00 0.00 0.00 91 1017.9
20260902010245 82 0.0 0.0 0.00 0.00 0.00 88 1017.7
20260902005236 83 0.0 0.0 0.00 0.00 0.00 85 1017.7
20260902004309 84 0.0 0.0 0.00 0.00 0.00 83 1017.6
20260902003244 85 0.0 0.0 0.00 0.00 0.00 80 1017.6
20260902002239 87 0.0 0.0 0.00 0.00 0.00 79 1017.6
20260902001233 88 0.0 0.0 0.00 0.00 0.00 77 1017.4
20260902000308 89 11 0.0 0.9 0.00 0.00 0.00 72 1017.6
20260901235239 91 10 0.0 0.9 0.00 0.00 0.00 71 1017.8
20260901234232 93 38 0.9 0.9 0.00 0.00 0.00 68 1017.8
20260901233247 94 352 0.0 0.9 0.00 0.00 0.00 62 1017.7
20260901232301 95 351 0.0 0.9 0.00 0.00 0.00 59 1017.9
20260901231235 95 358 0.0 0.9 0.00 0.00 0.00 59 1017.9